Regional Weather Roundup
Issued by NWS Little Rock, AR

Home | Current Version | Previous Version | Graphics & Text | Print | Product List | Glossary On
Versions: 1 2 3 4 5 6 7 8 9 10 11 12 13 14 15 16 17 18 19 20 21 22 23 24 25 26 27 28 29 30 31 32 33 34 35 36 37 38 39 40 41 42 43 44 45 46 47 48 49 50
000
ASUS44 KLZK 071710
RWRLZK
ARKANSAS STATE WEATHER ROUNDUP
NATIONAL WEATHER SERVICE LITTLE ROCK AR
ISSUED BY NATIONAL WEATHER SERVICE MEMPHIS TN
1200 PM CDT TUE JUL 07 2015

NOTE: "FAIR" INDICATES FEW OR NO CLOUDS BELOW 12,000 FEET WITH NO
SIGNIFICANT WEATHER AND/OR OBSTRUCTIONS TO VISIBILITY.

ARZ001-003-010-029-071800-
NORTHWEST ARKANSAS

CITY           SKY/WX    TMP DP  RH WIND       PRES   REMARKS
FORT SMITH     CLOUDY    85  71  63 SW15G23   29.96S HX  90
HARRISON       RAIN      71  71 100 VRB5      30.04R FOG
BENTONVILLE    CLOUDY    72  66  83 S5        30.01F
ROGERS         LGT RAIN  71  71 100 SE7       30.02S
SILOAM SPGS    CLOUDY    72  66  83 SE6       30.02S
HIGHFILL       LGT RAIN  71  71 100 S6        30.01R
SPRINGDALE     LGT RAIN  72  70  94 CALM      30.04S FOG
$$

ARZ004-005-016-071800-
NORTH CENTRAL ARKANSAS

CITY           SKY/WX    TMP DP  RH WIND       PRES   REMARKS
BATESVILLE     PTSUNNY   84  72  65 SW14G21   30.00F
FLIPPIN        CLOUDY    77  72  83 N9        29.99R
MTN HOME       CLOUDY    75  72  90 VRB3      30.01R
$$

ARZ040-041-071800-
WEST CENTRAL ARKANSAS

CITY           SKY/WX    TMP DP  RH WIND       PRES   REMARKS
MOUNT IDA      MOSUNNY   85  73  67 VRB6G17   30.00F HX  91
$$

ARZ017-025-026-028-071800-
NORTHEAST ARKANSAS

CITY           SKY/WX    TMP DP  RH WIND       PRES   REMARKS
JONESBORO      MOSUNNY   87  75  67 SW15G25   30.01R HX  96
NEWPORT        CLOUDY    86  76  71 SW9       30.02S HX  96
WALNUT RIDGE   MOSUNNY   88  73  62 SW20G26   29.98F HX  96
BLYTHEVILLE    MOSUNNY   86  77  74 SW13G25   30.02S HX  97
$$

ARZ022-033-042-044-071800-
CENTRAL ARKANSAS

CITY           SKY/WX    TMP DP  RH WIND       PRES   REMARKS
LITTLE ROCK    PTSUNNY   88  72  58 SW9G17    30.02F HX  94
JACKSONVILLE   MOSUNNY   87  73  63 SW15G24   30.02F HX  95
SEARCY         CLOUDY    88  75  65 SW9G18    30.03S HX  97
HOT SPRINGS    MOSUNNY   86  74  67 SW13G22   30.03S HX  94
RUSSELLVILLE   MOSUNNY   85  75  72 SW8       29.99F HX  93
$$

ARZ036-071800-
EAST ARKANSAS

CITY           SKY/WX    TMP DP  RH WIND       PRES   REMARKS
WEST MEMPHIS   MOSUNNY   86  76  71 SW10G17   30.03S HX  96
$$

ARZ050-070-073-071800-
SOUTHWEST ARKANSAS

CITY           SKY/WX    TMP DP  RH WIND       PRES   REMARKS
TEXARKANA      MOSUNNY   87  75  67 SW13G21   30.03F HX  96
EL DORADO      MOSUNNY   88  74  63 S10       30.06S HX  96
DEQUEEN        PTSUNNY   87  76  69 SW13G21   29.99F HX  97
$$

ARZ056-057-069-071800-
SOUTHEAST ARKANSAS

CITY           SKY/WX    TMP DP  RH WIND       PRES   REMARKS
PINE BLUFF     MOSUNNY   87  74  64 SW9       30.05S HX  95
STUTTGART      PTSUNNY   90  75  62 MISG      30.03S HX 100
MONTICELLO     MOSUNNY   88  75  65 SW8G18    30.06S HX  97
$$




USA.gov is the U.S. government's official web portal to all federal, state and local government web resources and services.